Probability
0 0 0 0 0 0 0 0 0 0 0 0 0 0 0 0 0 0 0 0 0 0 0 0 0 0 0 0 0 0 0 0 0 0 0 0 0 0 0 0 0 0 0 0
0 0 0 0 0 0 0 0 0 0 0 0 0 0 0 0 0 0 0 0 0 0 0 0 0 0 0 0 0 0 0 0 0 0 0 0 0 0 0 0 0 0 0 0
0 0 0 0 0 0 0 0 0 0 0 0 0 0 0 0 0 0 0 0 0 0 0 0 0 0 0 0 0 0 0 0 0 0 0 0 0 0 0 0 0 0 0 0
0 0 0 0 0 0 0 0 0 0 0 0 0 0 0 0 0 0 0 0 0 0 0 0 0 0 0 0 0 0 0 0 0 0 0 0 0 0 0 0 0 0 0 0
0 0 0 0 0 0 0 0 0 0 0 0 0 0 0 0 0 0 0 0 0 0 0 0 0 0 0 0 0 0 0 0 0 0 0 0 0 0 0 0 0 0 0 0
0 0 0 0 0 0 0 0 0 0 0 0 0 0 0 0 0 0 0 0 0 0 0 0 0 0 0 0 0 0 0 0 0 0 0 0 0 0 0 0 0 0 0 0
0 0 0 0 0 0 0 0 0 0 0 0 0 0 0 0 0 0 0 0 0 0 0 0 0 0 0 0 0 0 0 0 0 0 0 0 0 0 0 0 0 0 0 0
0 0 0 0 0 0 0 0 0 0 0 0 0 0 0 0 0 0 0 0 0 0 0 0 0 0 0 0 0 0 0 0 0 0 0 0 0 0 0 0 0 0 0 0
0 0 0 0 0 0 0 0 0 0 0 0 0 0 0 0 0 0 0 0 0 0 0 0 0 0 0 0 0 0 0 0 0 0 0 0 0 0 0 0 0 0 0 0
0 0 0 0 0 0 0 0 0 0 0 0 0 0 0 0 0 0 0 0 0 0 0 0 0 0 0 0 0 0 0 0 0 0 0 0 0 0 0 0 0 0 0 0
0 0 0 0 0 0 0 0 0 0 0 0 0 0 0 0 0 0 0 0 0 0 0 0 0 0 0 0 0 0 0 0 0 0 0 0 0 0 0 0 0 0 0 0
0 0 0 0 0 0 0 0 0 0 0 0 0 0 0 0 0 0 0 0 0 0 0 0 0 0 0 0 0 0 0 0 0 0 0 0 0 0 0 0 0 0 0 0
0 0 0 0 0 0 0 0 0 0 0 0 0 0 0 0 0 0 0 0 0 0 0 0 0 0 0 0 0 0 0 0 0 0 0 0 0 0 0 0 0 0 0 0
0 0 0 0 0 0 0 0 0 0 0 0 0 0 0 0 0 0 0 0 0 0 0 0 0 0 0 0 0 0 0 0 0 0 0 0 0 0 0 0 0 0 0 0
0 0 0 0 0 0 0 0 0 0 0 0 0 0 0 0 0 0 0 0 0 0 0 0 0 0 0 0 0 0 0 0 0 0 0 0 0 0 0 0 0 0 0 0
0 0 0 0 0 0 0 0 0 0 0 0 0 0 0 0 0 0 0 0 0 0 0 0 0 0 0 0 0 0 0 0 0 0 0 0 0 0 0 0 0 0 0 0
0 0 0 0 0 0 0 0 0 0 0 0 0 0 0 0 0 0 0 0 0 0 0 0 0 0 0 0 0 0 0 0 0 0 0 0 0 0 0 0 0 0 0 0
0 0 0 0 0 0 0 0 0 0 0 0 0 0 0 0 0 0 0 0 0 0 0 0 0 0 0 0 0 0 0 0 0 0 0 0 0 0 0 0 0 0 0 0
0 0 0 0 0 0 0 0 0 0 0 0 0 0 0 0 0 0 0 0 0 0 0 0 0 0 0 0 0 0 0 0 0 0 0 0 0 0 0 0 0 0 0 0
0 0 0 0 0 0 0 0 0 0 0 0 0 0 0 0 0 0 0 0 0 0 0 0 0 0 0 0 0 0 0 0 0 0 0 0 0 0 0 0 0 0 0 0
0 0 0 0 0 0 0 0 0 0 0 0 0 0 0 0 0 0 0 0 0 0 0 0 0 0 0 0 0 0 0 0 0 0 0 0 0 0 0 0 0 0 0 0
0 0 0 0 0 0 0 0 0 0 0 0 0 0 0 0 0 0 0 0 0 0 0 0 0 0 0 0 0 0 0 0 0 0 0 0 0 0 0 0 0 0 0 0
0 0 0 0 0 0 0 0 0 0 0 0 0 0 0 0 0 0 0 0 0 0 0 0 0 0 0 0 0 0 0 0 0 0 0 0 0 0 0 0 0 0 0 0
0 0 0 0 0 0 0 0 0 0 0 0 0 0 0 0 0 0 0 0 0 0 0 0 0 0 0 0 0 0 0 0 0 0 0 0 0 0 0 0 0 0 0 0
0 0 0 0 0 0 0 0 0 0 0 0 0 0 0 0 0 0 0 0 0 0 0 0 0 0 0 0 0 0 0 0 0 0 0 0 0 0 0 0 0 0 0 0
0 0 0 0 0 0 0 0 0 0 0 0 0 0 0 0 0 0 0 0 0 0 0 0 0 0 0 0 0 0 0 0 0 0 0 0 0 0 0 0 0 0 0 0
0 0 0 0 0 0 0 0 0 0 0 0 0 0 0 0 0 0 0 0 0 0 0 0 0 0 0 0 0 0 0 0 0 0 0 0 0 0 0 0 0 0 0 0
Wind_Speed
6 6 12 9 13 14 15 14 13 14 14 14 11 8 6 4 4 4 5 7 8 8 7 6 6 6 6 6 6 6 7 8 8 8 9 9 10 10 9 9 10 10 10 8
3 5 8 7 12 17 18 18 18 14 16 11 7 5 6 6 6 7 9 10 9 9 9 9 9 8 7 7 7 7 8 8 8 9 9 9 10 10 10 10 9 9 9 9
4 3 4 8 16 20 15 14 15 22 21 5 7 10 11 9 9 11 11 10 11 12 12 11 10 10 10 8 7 7 8 8 9 9 10 10 10 10 11 10 9 9 8 8
6 6 9 14 8 13 18 17 17 15 10 11 14 12 9 8 10 11 10 10 11 11 10 8 8 8 8 8 9 9 9 9 9 10 10 10 10 10 9 8 9 8 8 8
6 6 9 10 7 12 13 17 17 18 14 9 5 2 8 9 10 12 11 10 9 9 9 9 10 11 10 9 9 10 10 10 10 11 11 11 11 10 8 8 8 7 7 7
7 8 15 13 7 7 7 14 12 14 14 10 7 6 12 8 9 10 8 6 6 6 8 10 10 11 12 11 11 12 11 10 9 10 11 11 11 9 6 8 8 8 7 6
8 8 13 6 5 11 12 14 5 11 12 12 14 15 9 4 4 5 4 4 6 8 9 9 11 12 12 11 12 9 9 9 9 8 9 9 9 7 9 8 8 7 7 5
9 9 14 5 10 14 10 2 3 5 7 10 11 8 4 1 1 1 2 3 6 7 7 7 10 12 12 11 8 9 10 10 9 8 8 8 10 8 8 9 9 8 7 5
12 12 3 9 9 5 3 3 2 2 2 5 5 4 2 1 1 0 1 3 3 5 6 6 8 9 10 8 9 10 10 10 9 9 7 8 10 11 8 7 7 7 6 6
4 5 3 4 1 1 1 2 1 1 1 2 2 1 1 0 0 1 1 2 3 5 6 6 5 5 6 9 10 11 11 10 9 10 9 7 6 7 8 8 7 7 6 6
5 2 1 1 2 2 2 3 4 4 3 2 2 2 1 1 1 1 1 1 2 4 4 5 5 5 7 9 11 11 10 9 9 8 9 8 6 4 6 4 5 7 6 6
7 7 6 4 1 3 4 3 3 4 4 5 4 3 3 2 2 2 2 2 2 3 3 4 5 5 6 8 10 11 10 9 8 7 7 7 7 5 5 5 6 7 8 7
2 3 5 5 5 5 5 5 6 6 5 5 5 4 3 3 2 2 2 1 1 2 3 4 4 5 5 6 8 9 9 9 8 8 8 8 8 8 7 5 5 6 8 9
4 4 6 5 5 6 7 6 7 8 7 6 5 4 4 3 3 3 2 1 1 2 3 3 4 4 4 5 6 6 7 8 8 7 7 8 8 7 7 8 6 4 4 8
8 6 7 6 7 7 6 6 9 8 7 7 6 6 5 4 4 3 2 2 3 3 2 2 3 3 3 4 5 6 6 6 5 5 5 5 5 5 5 6 5 4 3 4
4 8 9 9 9 8 8 8 8 7 6 6 7 6 5 4 3 3 3 2 2 0 1 2 2 2 3 4 4 4 4 6 6 6 6 6 6 6 6 6 6 6 6 6
4 6 6 6 7 8 8 8 7 5 6 7 6 5 4 4 4 4 3 3 2 1 1 1 2 2 4 4 4 3 4 5 7 5 5 6 6 7 6 6 7 7 6 7
9 7 7 5 4 5 7 7 7 7 6 6 5 5 5 6 5 4 4 3 2 2 2 2 0 2 3 3 3 3 3 4 4 5 5 5 5 5 5 6 6 6 4 5
10 10 9 9 8 6 5 6 6 6 6 6 6 6 5 5 5 4 3 3 3 4 4 3 2 2 2 3 3 3 3 4 4 4 4 5 5 5 5 6 6 5 5 5
10 9 9 8 9 7 6 6 6 6 7 7 6 6 6 6 6 5 3 2 2 3 4 3 2 1 2 3 4 3 4 4 5 4 5 5 6 6 6 6 6 6 6 6
8 8 8 7 7 7 7 6 6 6 7 7 6 6 5 6 6 5 4 3 4 5 5 3 2 1 2 2 3 3 4 4 5 5 5 6 6 6 6 6 6 6 6 6
6 6 7 6 6 5 6 6 5 5 6 6 6 6 6 6 6 5 2 2 5 6 4 3 3 3 3 3 2 3 4 4 4 4 5 5 5 6 6 6 6 6 6 6
4 5 5 6 5 4 4 5 6 5 5 6 6 6 5 5 4 4 4 4 5 7 5 4 5 6 4 3 3 3 4 5 5 5 5 5 5 6 6 6 6 6 6 6
4 5 5 4 3 4 5 6 6 4 4 4 4 4 4 4 3 2 3 7 8 8 5 6 8 7 4 2 2 3 4 4 4 4 4 5 5 5 5 5 5 5 6 7
4 4 4 5 4 4 4 5 5 5 5 4 4 4 3 2 3 4 5 6 8 7 5 7 9 7 3 2 2 3 3 4 4 4 4 5 5 5 5 5 6 6 6 6
3 3 3 3 2 3 3 3 3 4 4 4 4 4 4 3 4 4 4 5 6 6 5 4 4 4 3 2 3 3 3 3 4 4 4 4 5 5 5 5 7 6 5 5
3 3 2 3 2 2 3 3 3 4 3 4 5 4 4 4 4 4 5 4 4 4 4 4 4 3 3 3 3 3 3 3 3 4 4 4 4 5 5 6 5 5 5 5
Wind_Direction
185 160 155 174 187 186 200 209 217 233 233 242 254 266 272 249 223 217 222 216 209 205 199 192 186 179 170 161 155 152 150 150 146 138 135 134 133 131 129 127 128 128 125 121
181 172 169 179 191 194 208 215 226 239 244 235 240 248 257 241 224 228 230 224 215 208 201 198 192 183 172 166 160 154 153 148 140 137 134 134 133 131 127 124 124 126 129 131
187 127 110 227 205 199 210 217 214 231 240 215 231 237 240 237 227 231 230 220 213 210 207 201 192 180 177 168 155 154 151 147 147 144 141 140 137 134 134 133 131 130 131 133
135 126 211 234 203 195 212 225 216 226 227 206 221 231 237 225 222 234 232 223 218 211 204 190 175 167 159 153 156 156 155 155 154 150 144 142 139 138 136 135 138 136 138 135
145 183 250 263 212 190 199 236 225 228 233 225 228 274 269 236 219 227 228 221 215 201 187 173 171 163 155 158 161 163 167 166 164 157 151 150 149 145 139 138 136 134 137 137
152 182 226 237 195 161 153 252 230 215 224 211 160 220 250 235 214 228 230 217 195 170 164 170 168 159 161 168 173 180 176 167 161 158 156 156 151 144 135 137 135 132 131 133
174 208 246 237 159 138 183 238 210 194 205 191 193 219 240 231 208 218 217 191 163 164 173 174 162 161 171 176 187 175 153 148 151 153 151 146 138 136 136 134 130 128 128 129
173 209 237 182 148 179 212 192 178 185 198 198 213 233 257 287 252 215 164 153 158 165 167 159 162 168 179 187 168 144 144 147 149 146 142 141 138 135 136 138 136 136 136 137
191 215 186 171 187 200 159 178 178 177 202 195 210 234 244 257 279 227 155 155 154 156 151 154 169 176 181 165 144 144 146 148 146 141 139 146 148 147 145 146 148 153 156 157
190 228 200 188 169 132 133 144 121 109 103 143 178 194 177 142 23 47 86 136 139 146 158 167 170 170 156 145 148 149 152 151 150 148 145 143 145 152 155 161 161 161 166 166
193 197 107 253 203 170 127 98 84 70 63 69 112 95 96 85 63 75 80 101 136 159 168 165 154 148 143 150 151 152 152 152 153 152 151 149 144 154 158 163 173 170 173 166
200 190 170 183 175 137 113 91 83 86 69 47 53 60 60 57 47 61 80 95 121 140 148 150 150 149 151 158 158 155 156 160 160 156 153 151 145 131 150 151 163 168 166 165
97 109 106 99 71 70 91 78 74 73 72 62 43 47 61 59 52 62 72 90 143 160 151 148 152 156 160 163 164 167 166 165 163 163 162 161 161 159 155 152 167 177 179 182
41 83 84 67 68 62 77 82 78 68 57 53 46 45 51 56 52 52 40 31 87 112 125 141 155 168 163 164 167 168 163 165 166 168 168 169 171 171 167 165 168 181 197 199
28 56 93 90 71 59 59 70 68 55 44 38 36 39 38 39 34 25 29 59 85 97 117 149 172 178 158 167 171 168 164 166 164 160 161 163 163 165 170 173 172 165 165 200
40 65 72 72 63 52 49 51 58 45 34 30 29 27 26 38 45 40 39 56 77 95 205 200 209 178 160 170 172 169 168 166 161 160 161 163 166 172 178 180 183 187 195 189
63 54 45 55 50 48 47 45 47 38 30 26 13 7 25 39 42 32 20 13 11 355 336 245 236 157 165 176 179 175 165 165 164 166 177 179 180 185 185 186 195 201 202 192
44 53 49 58 56 57 48 38 32 28 21 359 354 18 31 28 15 360 354 0 8 5 2 336 276 151 170 180 178 166 165 170 177 185 184 187 188 187 187 195 202 202 196 204
37 42 41 41 37 48 45 30 18 14 7 2 12 23 25 20 6 355 359 10 2 345 345 339 293 164 182 194 177 166 172 177 185 190 189 189 188 192 196 199 202 202 195 196
34 33 37 38 36 39 35 16 10 18 10 5 14 24 22 11 0 356 4 13 3 326 327 326 312 222 207 215 199 178 187 192 196 195 196 201 204 204 205 205 204 203 203 206
23 23 26 28 31 32 25 12 14 15 7 13 23 16 1 353 355 354 359 355 0 349 338 329 317 280 230 215 201 194 199 206 209 207 206 210 212 211 211 211 210 210 210 212
10 13 15 14 19 21 12 11 14 10 10 13 14 7 2 359 355 349 357 346 333 333 332 321 308 281 248 214 210 212 214 218 222 219 216 215 216 217 216 215 217 217 217 215
1 3 4 3 359 349 356 10 8 6 6 3 360 357 349 335 332 337 333 340 333 327 327 312 304 293 267 221 217 222 224 227 230 228 225 222 222 222 222 220 219 219 219 219
356 358 352 342 347 10 8 355 348 349 346 339 339 336 333 331 330 329 312 316 321 322 320 310 310 307 293 245 228 231 233 234 236 236 234 231 228 227 227 224 222 219 219 220
343 343 351 358 7 0 339 331 336 347 349 341 334 333 329 308 295 304 310 313 319 325 321 321 323 323 316 278 249 244 244 243 241 238 235 232 230 228 228 227 227 226 224 224
337 333 328 321 312 312 321 331 333 331 335 332 327 321 322 315 305 303 308 314 320 322 321 318 321 322 316 297 275 263 256 256 256 250 246 244 241 238 236 233 232 232 232 232
324 325 324 327 324 321 319 318 316 315 315 312 308 307 313 316 316 317 318 317 320 320 318 317 318 316 310 299 288 277 267 257 252 250 248 244 242 240 240 239 237 235 234 234